Temperature
17 17 18 18 18 18 18 18 18 18 18 18 18 18 18 18 18 18 17 17 17 17 17 17 17 17 17 17 17 18 18 18 18 18 18 18 18 18 18 18 18 18 18
17 17 17 17 18 18 18 18 18 18 18 18 17 17 17 17 17 17 17 17 17 17 17 17 17 17 17 17 17 17 17 17 17 17 17 17 18 18 18 18 18 18 18
18 17 17 17 17 17 18 18 17 17 17 17 17 17 17 17 17 17 17 16 16 17 17 17 17 17 17 17 17 17 17 17 17 17 17 17 17 18 18 18 18 18 18
18 17 17 17 17 17 17 17 17 17 17 17 17 17 17 16 16 16 16 16 16 16 16 16 16 17 17 17 17 17 17 17 17 17 17 17 17 18 18 18 18 18 18
17 17 17 17 17 17 17 17 17 17 17 17 16 16 16 16 16 16 16 16 16 16 16 16 17 17 17 17 17 17 17 17 17 17 17 17 17 17 17 18 18 18 18
17 17 17 17 17 17 17 17 17 17 17 17 16 16 16 16 16 16 16 16 16 16 16 16 16 17 17 17 17 17 17 17 17 17 17 17 17 17 17 18 18 18 18
18 17 17 17 17 17 17 17 17 17 16 16 16 16 16 16 16 16 16 16 16 16 16 16 16 16 16 17 16 17 17 17 17 17 17 17 17 17 17 18 18 18 18
18 17 17 17 17 17 17 17 17 16 16 16 16 16 16 16 16 16 16 16 16 16 16 16 16 16 16 16 16 16 17 17 17 17 17 17 17 17 17 17 18 18 18
18 17 17 17 17 17 17 17 16 16 16 16 16 16 16 16 16 16 16 16 16 16 16 16 16 16 16 16 16 16 16 16 17 17 17 17 17 17 17 17 17 17 17
17 17 17 17 17 17 17 16 16 16 16 16 16 16 16 16 16 16 16 16 16 16 16 16 16 16 16 16 16 16 16 16 17 17 17 17 17 17 17 17 17 17 17
17 17 17 17 17 17 17 16 16 16 16 16 16 16 16 16 16 16 16 16 16 16 16 16 16 16 16 16 16 16 16 16 16 16 16 16 17 17 17 17 17 17 17
18 17 17 17 17 17 17 16 16 16 16 16 16 16 16 16 16 16 16 16 16 16 16 16 16 16 16 16 16 16 16 16 16 16 16 16 16 17 17 17 17 17 17
18 18 17 17 17 17 17 17 16 16 16 16 16 16 16 16 16 16 16 16 16 16 16 16 16 16 16 16 16 16 16 16 16 16 16 16 16 16 16 17 17 17 17
18 18 17 17 17 17 17 17 16 16 16 16 16 16 16 16 16 16 16 16 16 16 16 16 16 16 16 16 16 16 16 16 16 16 16 16 16 16 16 16 17 17 17
18 18 17 17 17 17 17 17 16 16 16 16 16 16 16 16 16 16 16 16 16 16 16 16 16 16 16 16 16 16 16 16 16 16 16 16 16 16 16 16 16 16 17
18 18 18 17 17 17 17 17 16 16 16 16 16 16 16 16 16 16 16 16 16 16 16 16 16 16 16 16 16 16 16 16 16 16 16 16 16 16 16 16 16 16 16
18 18 18 17 17 17 17 17 16 16 16 16 16 16 16 16 16 16 16 15 16 16 16 16 16 16 16 16 16 16 16 16 16 16 16 16 16 16 16 16 16 16 16
18 18 18 17 17 17 17 17 16 16 16 16 16 16 16 16 16 16 16 15 15 16 16 16 16 16 16 16 16 16 16 16 16 16 16 16 16 16 16 16 16 16 16
18 18 18 17 17 17 17 17 16 16 16 16 16 16 16 16 16 16 15 15 15 15 16 16 16 16 16 16 16 16 16 15 15 15 15 15 15 15 16 16 16 16 16
18 18 18 17 17 17 17 17 16 16 16 16 16 16 16 16 16 16 15 15 15 16 16 16 15 15 15 15 15 15 15 15 15 15 15 15 15 15 15 15 15 15 16
18 18 18 17 17 17 17 17 16 16 16 16 16 16 16 15 15 15 15 15 15 15 15 15 15 16 15 15 15 15 15 15 15 15 15 15 15 15 15 15 15 15 15
18 18 18 17 17 17 17 17 16 16 16 16 15 15 15 15 15 15 15 15 15 15 15 15 15 15 15 15 15 15 15 15 15 15 15 15 15 15 15 15 15 15 15
18 18 18 18 17 17 17 17 16 16 16 16 15 15 15 15 15 15 15 15 15 15 15 15 15 15 15 15 15 15 15 14 14 14 14 15 15 15 15 15 15 14 15
18 18 18 18 17 17 17 17 16 16 16 16 16 15 15 15 15 15 15 15 15 15 15 15 15 15 15 15 15 15 15 14 14 14 14 14 14 14 14 14 14 14 14
18 18 18 18 17 17 17 17 16 16 16 16 15 15 15 15 15 15 15 15 15 15 15 15 15 15 15 15 15 14 14 14 14 14 14 14 14 14 14 14 14 14 14
18 18 18 18 17 17 17 17 16 16 16 16 16 15 15 15 15 15 15 14 14 14 14 14 14 14 14 14 14 14 14 14 14 14 14 13 13 13 13 13 14 14 14
Wind_Speed
1 4 10 12 13 13 14 14 15 15 14 14 14 14 14 13 13 13 13 12 12 12 11 11 10 9 9 9 9 8 8 8 7 7 7 7 7 6 6 6 6 5 5
4 7 11 12 13 14 14 15 15 14 14 14 14 13 13 13 12 12 12 11 11 11 11 10 9 9 8 8 8 7 7 7 7 6 6 6 6 5 6 6 5 5 5
7 8 11 12 13 13 14 14 14 14 13 13 13 13 12 12 11 11 11 10 10 10 10 9 9 8 8 8 8 8 7 7 6 6 5 4 4 5 6 6 5 5 5
9 9 11 13 13 13 13 13 13 13 13 12 12 12 11 11 11 10 10 9 9 9 9 8 8 7 7 7 7 7 7 6 6 6 5 4 3 5 6 5 5 5 5
9 10 12 13 13 13 13 13 13 12 12 11 11 11 10 10 10 9 9 9 9 8 8 7 7 6 7 7 7 7 6 6 5 5 5 4 3 4 5 5 4 4 5
8 10 12 13 13 13 13 12 12 11 11 10 10 9 9 9 9 8 8 8 7 7 7 6 6 6 6 6 6 6 5 5 5 5 4 4 3 4 5 5 4 4 4
7 9 11 13 12 12 12 11 11 10 9 9 9 8 7 7 7 7 7 7 6 6 5 5 5 5 6 6 6 6 4 5 4 3 2 2 3 4 5 5 5 5 4
8 8 10 12 12 11 11 10 9 8 8 7 6 6 5 5 5 5 5 5 5 4 4 4 5 5 5 6 6 6 5 4 4 3 2 2 3 4 4 5 5 5 4
8 7 7 9 10 10 9 8 8 6 5 5 4 4 3 3 3 3 3 3 3 3 4 5 5 6 6 6 6 6 5 5 4 2 2 2 3 4 5 5 5 5 5
6 5 6 6 7 7 6 6 5 4 4 3 3 3 3 2 1 1 2 3 3 4 4 5 6 6 6 6 7 6 4 4 4 3 2 3 5 5 5 5 5 5 5
6 4 5 5 5 5 4 4 3 3 3 3 3 4 3 3 2 2 2 3 4 4 5 6 6 6 7 7 7 5 3 3 4 3 2 4 5 5 5 5 6 6 5
6 5 4 5 5 4 3 3 2 3 4 4 4 4 4 3 3 3 4 5 6 6 7 7 7 6 6 6 6 5 3 3 3 2 3 5 5 6 6 6 6 6 6
6 6 5 4 5 4 3 3 3 3 4 5 5 5 6 6 5 5 5 6 7 7 7 8 8 7 5 4 3 3 3 3 3 2 3 5 5 6 6 6 6 6 6
6 5 5 4 4 4 4 4 4 3 5 5 6 7 6 5 4 4 4 6 6 6 6 6 5 6 6 6 5 4 4 4 4 3 3 5 5 6 6 7 6 6 6
6 5 4 4 5 5 4 4 5 4 5 6 8 8 8 5 3 4 4 6 6 6 6 5 5 5 5 6 6 5 4 4 4 4 3 4 5 6 6 6 7 6 6
6 5 5 6 5 6 5 4 4 6 7 9 9 9 10 7 5 4 4 5 6 7 6 5 5 4 4 4 5 5 4 4 4 4 4 4 5 6 6 6 6 6 7
6 6 6 6 6 6 6 5 6 6 8 8 8 10 10 9 7 6 4 5 6 8 8 7 6 5 4 4 5 5 4 4 4 4 4 4 4 5 6 6 7 7 7
7 6 6 7 7 6 5 6 6 7 8 7 9 10 10 10 9 7 4 4 7 9 6 4 4 4 4 4 4 4 4 4 5 5 5 5 5 6 7 8 8 8 8
7 7 6 6 7 6 6 6 6 7 7 7 9 9 10 10 10 9 5 5 8 7 5 4 4 3 4 4 3 4 5 5 4 6 6 6 6 7 7 9 10 10 9
7 7 7 6 6 6 5 5 4 5 5 7 8 8 10 10 10 9 6 7 8 5 6 5 4 5 3 3 4 5 5 5 4 5 5 6 7 7 7 8 9 10 11
6 7 6 6 5 5 4 4 3 3 2 3 5 8 10 10 10 9 6 6 6 5 5 5 4 5 5 3 4 4 5 5 6 6 5 5 6 8 9 9 9 9 9
7 7 6 6 5 4 3 3 3 3 2 2 3 7 10 10 9 8 6 4 4 5 7 7 5 3 4 5 3 3 4 5 5 6 5 6 6 7 8 8 9 9 9
7 7 7 5 5 5 5 4 4 4 3 3 3 3 5 9 10 9 7 5 5 5 5 5 5 5 4 5 4 3 3 1 2 4 5 6 6 5 5 7 9 9 10
7 7 7 6 5 5 6 6 6 4 3 1 1 1 3 7 7 8 8 7 5 4 5 5 5 4 4 4 4 4 3 3 2 2 4 5 6 6 6 6 7 8 9
7 7 7 6 5 5 5 6 6 4 3 1 1 2 3 4 5 6 7 7 5 4 4 5 5 6 4 4 3 2 4 4 4 3 1 4 4 4 5 4 5 7 8
6 6 7 7 5 5 6 6 7 7 5 4 3 2 1 2 2 4 5 5 5 4 4 4 4 6 5 5 5 4 3 3 2 3 2 1 2 3 4 4 5 6 7
Wind_Direction
80 106 105 101 97 95 93 90 87 86 85 83 81 80 79 78 77 75 73 71 68 67 68 66 66 67 65 64 63 62 63 61 62 62 66 67 69 70 73 79 89 93 91
127 108 104 101 97 95 92 90 89 87 86 84 81 80 79 78 76 73 71 69 68 66 66 64 64 62 63 59 56 53 52 52 52 55 60 57 64 70 76 80 88 95 92
114 108 105 102 100 97 94 91 89 88 86 84 82 80 78 77 73 71 69 66 64 62 61 60 60 58 57 53 48 44 43 44 50 54 57 51 62 75 83 83 85 86 88
117 112 110 106 101 98 95 93 91 89 87 85 82 79 78 76 74 71 68 65 62 59 57 54 53 53 49 45 40 35 35 41 53 49 51 44 60 82 88 86 85 83 80
113 113 112 107 103 99 97 94 92 91 89 86 82 77 75 74 72 69 67 65 63 59 55 50 47 43 40 35 30 26 27 34 45 50 57 55 64 84 86 83 83 84 79
112 115 115 110 106 103 98 95 93 91 89 86 83 81 77 73 71 70 68 66 64 59 53 47 41 34 29 27 24 22 27 29 41 56 64 63 68 81 82 81 84 89 82
118 120 119 115 112 108 104 101 98 96 94 90 86 82 79 76 73 71 71 68 65 58 47 37 30 26 23 22 22 24 28 31 58 59 60 59 87 84 77 80 85 89 82
133 132 127 124 121 117 114 111 107 102 97 91 86 82 80 77 75 69 68 69 64 52 35 18 9 8 11 13 16 18 19 34 55 59 54 62 89 86 85 88 89 85 78
138 135 134 132 128 125 121 116 114 110 101 91 81 73 75 75 77 71 56 58 53 35 15 1 354 356 358 359 1 11 18 37 51 62 74 71 74 80 88 90 89 85 77
142 146 148 143 136 131 129 124 118 108 93 77 63 53 48 46 59 38 14 18 22 17 6 357 348 345 343 345 353 10 32 48 45 60 71 80 76 80 86 89 88 84 79
155 163 158 154 157 158 157 138 118 86 55 36 27 41 33 6 354 340 338 355 355 355 353 350 343 334 337 347 355 11 45 60 56 65 73 87 82 79 83 88 87 82 79
158 172 167 166 173 178 167 132 101 58 35 28 18 30 36 19 354 360 353 5 -0 357 357 0 3 354 348 349 2 25 55 68 68 73 95 93 89 84 82 88 88 80 79
150 154 167 168 162 157 134 110 91 59 38 29 24 43 53 46 31 27 14 5 5 7 10 14 17 16 14 11 37 56 74 72 75 84 97 97 90 83 79 83 85 82 79
128 142 149 145 132 131 117 104 96 73 52 40 38 49 64 59 43 31 14 9 10 11 18 22 25 28 35 41 61 68 74 85 91 88 93 91 85 82 80 75 78 78 77
122 134 136 124 116 113 100 92 85 71 62 52 46 46 63 66 47 34 23 20 18 22 25 25 31 36 34 39 53 70 75 80 87 85 78 80 75 70 73 74 76 74 74
122 126 119 103 105 101 94 92 82 73 65 57 51 51 59 62 55 42 27 23 19 24 34 40 39 39 33 40 37 49 69 82 80 78 72 69 68 65 65 69 73 75 75
127 120 116 111 100 97 98 98 89 78 70 58 52 56 58 58 57 53 40 27 18 29 39 44 39 40 39 40 39 41 52 67 74 75 73 57 55 58 60 62 68 69 75
123 119 117 111 99 94 96 98 92 83 73 60 53 54 54 55 59 58 46 29 26 35 36 37 34 38 32 33 37 36 39 52 57 67 71 60 55 50 51 57 59 61 66
129 122 115 109 106 102 96 94 87 81 73 63 57 54 53 55 59 62 52 34 37 39 31 35 38 40 37 28 42 45 37 42 41 58 57 56 52 51 52 55 55 56 58
128 124 120 113 113 107 94 81 65 57 54 55 56 53 55 56 60 62 57 40 42 39 30 31 39 36 41 34 59 50 32 32 37 44 46 49 49 52 54 55 51 48 52
125 123 126 123 124 117 105 99 89 71 50 43 52 57 57 59 63 63 57 45 44 45 35 33 40 40 30 29 59 34 13 25 38 34 32 40 42 47 55 59 54 48 46
145 139 135 138 136 132 131 132 128 119 90 63 47 50 52 58 63 68 63 51 45 48 39 35 40 50 32 33 78 75 28 6 8 21 25 37 34 42 48 59 57 53 51
153 154 153 152 142 134 128 109 90 68 51 38 34 30 39 62 69 69 64 61 53 57 52 42 46 63 54 28 47 103 108 94 343 356 18 27 27 37 35 52 53 51 51
165 156 149 147 143 136 127 126 130 129 133 171 160 65 43 57 68 74 69 62 57 54 52 47 55 60 72 48 28 43 86 129 108 22 356 6 23 35 32 43 46 47 47
159 152 148 143 140 135 130 136 132 130 144 145 110 78 50 38 56 71 73 67 59 56 56 56 57 57 65 73 58 47 51 49 63 101 42 350 5 11 22 32 41 42 40
150 148 147 144 147 143 137 138 141 143 141 130 126 111 64 40 34 57 71 67 66 63 60 64 66 67 66 71 67 64 74 73 58 81 94 16 359 344 8 22 28 27 28
Height
1538 1538 1538 1537 1538 1538 1537 1537 1537 1537 1537 1537 1537 1537 1536 1536 1536 1535 1535 1535 1534 1534 1534 1533 1533 1533 1533 1533 1532 1532 1532 1532 1532 1531 1531 1530 1530 1530 1529 1529 1529 1528 1528
1538 1538 1539 1538 1538 1538 1538 1538 1538 1538 1538 1538 1537 1537 1537 1537 1536 1536 1535 1535 1535 1534 1534 1534 1533 1533 1533 1533 1533 1533 1532 1532 1532 1532 1531 1531 1531 1530 1530 1529 1529 1528 1528
1539 1539 1539 1539 1539 1539 1539 1539 1539 1539 1539 1538 1538 1538 1538 1537 1537 1536 1536 1535 1535 1534 1534 1534 1534 1533 1533 1533 1533 1533 1533 1533 1533 1532 1532 1531 1531 1531 1530 1530 1529 1529 1528
1540 1540 1540 1540 1540 1540 1540 1540 1540 1540 1540 1539 1539 1539 1538 1538 1537 1537 1536 1536 1535 1535 1534 1534 1534 1534 1533 1533 1533 1533 1533 1533 1533 1533 1532 1532 1531 1531 1530 1530 1529 1529 1528
1541 1541 1542 1542 1541 1541 1541 1541 1541 1541 1541 1540 1540 1540 1540 1539 1538 1538 1537 1536 1536 1535 1535 1534 1534 1534 1534 1533 1533 1533 1533 1533 1533 1533 1532 1532 1531 1531 1530 1530 1529 1529 1529
1542 1543 1543 1543 1543 1542 1542 1542 1542 1542 1542 1541 1541 1541 1540 1540 1539 1538 1538 1537 1536 1536 1535 1535 1534 1534 1534 1534 1533 1533 1534 1534 1534 1533 1533 1532 1532 1531 1530 1530 1529 1529 1529
1544 1544 1544 1544 1544 1544 1544 1543 1543 1543 1543 1543 1543 1542 1542 1541 1540 1540 1539 1538 1537 1537 1536 1536 1535 1535 1534 1534 1534 1534 1534 1534 1534 1533 1533 1532 1532 1531 1530 1530 1529 1529 1529
1546 1546 1546 1546 1546 1546 1545 1545 1545 1545 1545 1545 1544 1544 1543 1542 1542 1541 1540 1539 1538 1538 1537 1537 1536 1535 1535 1535 1535 1534 1534 1534 1534 1534 1533 1533 1532 1531 1530 1530 1529 1529 1528
1547 1548 1548 1548 1548 1548 1548 1547 1547 1547 1547 1546 1546 1545 1545 1544 1543 1542 1541 1540 1539 1539 1538 1537 1537 1536 1536 1536 1535 1535 1535 1535 1535 1534 1534 1533 1532 1532 1531 1530 1529 1529 1529
1549 1550 1550 1550 1550 1550 1550 1550 1549 1549 1549 1548 1547 1547 1546 1545 1544 1543 1543 1542 1541 1540 1539 1538 1538 1537 1537 1536 1536 1535 1535 1535 1535 1535 1534 1533 1533 1532 1531 1530 1530 1529 1529
1551 1551 1552 1552 1552 1552 1552 1551 1551 1551 1550 1549 1549 1548 1547 1546 1546 1545 1544 1543 1542 1541 1540 1539 1538 1538 1537 1537 1537 1536 1536 1536 1536 1535 1534 1534 1533 1532 1531 1530 1530 1529 1529
1552 1553 1553 1553 1553 1553 1553 1553 1552 1552 1551 1551 1550 1549 1548 1548 1547 1546 1545 1544 1543 1542 1541 1540 1539 1539 1538 1538 1537 1537 1537 1537 1536 1536 1535 1534 1534 1533 1532 1531 1531 1530 1530
1553 1554 1554 1555 1555 1555 1555 1554 1554 1553 1552 1552 1551 1550 1549 1549 1548 1547 1546 1545 1544 1543 1542 1541 1540 1540 1539 1539 1538 1538 1538 1538 1537 1537 1536 1535 1534 1534 1532 1532 1532 1531 1531
1554 1555 1556 1556 1556 1556 1556 1556 1555 1554 1554 1553 1552 1551 1551 1550 1549 1548 1547 1546 1545 1544 1543 1542 1541 1541 1540 1540 1539 1539 1539 1539 1539 1538 1537 1536 1536 1535 1534 1533 1533 1532 1532
1555 1556 1557 1557 1557 1557 1557 1557 1556 1556 1555 1554 1553 1552 1552 1551 1550 1549 1548 1547 1546 1545 1544 1543 1542 1542 1541 1541 1541 1540 1540 1540 1540 1539 1539 1538 1537 1536 1536 1535 1534 1533 1533
1556 1557 1558 1559 1559 1558 1558 1558 1558 1557 1556 1555 1554 1554 1553 1552 1551 1550 1549 1547 1546 1545 1545 1544 1543 1543 1542 1542 1542 1542 1542 1541 1541 1541 1540 1539 1539 1538 1537 1536 1536 1535 1534
1557 1558 1559 1560 1560 1559 1559 1559 1558 1558 1557 1556 1556 1555 1554 1553 1552 1551 1550 1548 1547 1546 1546 1545 1544 1544 1543 1543 1543 1543 1543 1543 1542 1542 1541 1541 1540 1539 1539 1538 1537 1537 1536
1558 1559 1560 1560 1561 1560 1560 1560 1559 1559 1558 1557 1557 1556 1555 1554 1553 1552 1550 1549 1548 1547 1546 1545 1545 1544 1544 1544 1544 1544 1544 1544 1544 1543 1543 1542 1541 1541 1540 1540 1539 1538 1538
1559 1560 1561 1561 1561 1561 1561 1561 1560 1560 1559 1558 1557 1557 1555 1554 1553 1552 1551 1550 1549 1548 1547 1546 1546 1545 1545 1546 1546 1546 1546 1545 1545 1545 1544 1544 1543 1542 1542 1542 1541 1540 1540
1559 1560 1561 1561 1562 1562 1562 1561 1561 1560 1560 1559 1558 1558 1557 1555 1554 1553 1552 1551 1550 1548 1548 1547 1546 1546 1546 1547 1547 1547 1547 1547 1546 1546 1546 1545 1544 1544 1543 1543 1542 1542 1541
1559 1560 1561 1562 1562 1562 1562 1562 1561 1561 1561 1560 1559 1559 1558 1556 1555 1554 1553 1551 1550 1549 1549 1548 1547 1547 1547 1547 1548 1548 1548 1548 1548 1547 1547 1546 1546 1545 1545 1544 1544 1543 1542
1559 1560 1561 1562 1562 1562 1562 1562 1562 1561 1561 1561 1560 1559 1558 1557 1556 1555 1554 1552 1551 1550 1550 1549 1548 1548 1548 1548 1548 1549 1549 1551 1549 1549 1548 1548 1547 1547 1546 1546 1545 1544 1544
1558 1560 1561 1561 1562 1562 1562 1562 1562 1562 1561 1561 1560 1560 1559 1558 1557 1556 1555 1554 1553 1552 1551 1550 1550 1549 1549 1549 1549 1549 1549 1550 1550 1551 1550 1549 1549 1548 1547 1547 1546 1546 1545
1557 1559 1560 1561 1562 1562 1562 1562 1562 1562 1561 1561 1560 1560 1559 1559 1558 1557 1556 1555 1554 1553 1552 1552 1551 1551 1550 1550 1550 1550 1550 1550 1550 1551 1552 1551 1550 1549 1549 1548 1547 1547 1546
1556 1558 1559 1560 1561 1561 1562 1562 1562 1561 1561 1561 1560 1560 1560 1559 1559 1558 1557 1556 1555 1554 1554 1553 1552 1552 1551 1551 1551 1551 1551 1551 1551 1551 1551 1552 1551 1551 1550 1549 1549 1548 1547
1555 1557 1558 1559 1560 1560 1561 1561 1561 1561 1561 1561 1560 1560 1560 1559 1559 1558 1558 1557 1556 1556 1555 1555 1554 1553 1553 1552 1552 1552 1552 1551 1551 1551 1552 1552 1552 1552 1551 1551 1550 1549 1548